Погода в Брянске

Погода в Брянске : погода сейчас, прогноз погоды и архив. Всё, что Вы хотите узнать о погоде в Брянске!

Поиск расширенной информации на нашем сайте:

Другие новости

Новости СМИ2

Главная страница сайта

Новости сайта

02.10.2013

Напоминаем, что на нашем новом сайте вы можете получить высокодетализированные прогнозы погоды по пунктам России, СНГ и мира (включающие важные для авиации метеовеличины, такие как направление и скорость ветра, видимость, явления погоды, количество и форма облачности, нижняя и верхняя граница облачности), а также ознакомиться с разнообразными материалами по авиационной метеорологии и подборкой полезных ссылок на эту тему.

Сайт Метеоцентр.Азия посвящён разработке технологий оптимизации авиаметеорологического обслуживания, включая проектирование и перспективное создание нескольких автоматизированных авиаметеорологических систем:
- система выпуска высокодетальных прогностических карт явлений погоды для нижнего воздушного пространства по России и ближнему зарубежью;
- система верификации прогнозов TAF (выпускаемых синоптиками официальных АМСГ РФ и ближнего зарубежья) и AUTOTAF (выпускаемых сайтом Метеоцентр.Азия) - выявление ошибок, онлайн-сопоставление с фактической погодой METAR, автоматическое внесение коррективов в прогнозы при резком отклонении фактической погоды от прогноза, подсчёт оправдываемости прогнозов по элементам и в целом;
- система обработки, анализа и отображения авиаметеорологической информации для применения провайдерами метеорологической информации.

Рекомендуем: Детальное описание иайдо харьков на нашем сайте.

Погода в Брянске - сегодня

Время (UTC), дата Ветер
(°,м/с) 
Видим.   Явления Облачность Т
(°С)
Тd
(°С)
f(%) Тe
(°С)
Pmin
(гПа)
dP
(гПа)
Po
(мм)
O2
(г/м3)
Тmin Tmax R s Состояние
почвы
00 25.04.17 250 (З) 10 км    ясно 
+1.7 -7.3 51 +1  1015.2  0.8  741  298           
03 25.04.17 190 (Ю) 20000 м    ясно 
-1.3 -5.7 72 -1  1016.7  1.4  742  301  -1.9         
06 25.04.17 250 (З) 20000 м    ясно 
+5.7 -1.3 61 +5  1017.7  1.5  743  294  -1.9        сухая 
09 25.04.17 230 (ЮЗ) 20000 м    8/8 930 м 
[Cu med, cong]
+9 -4.1 39 +8  1017.9  0.5  744  291           
12 25.04.17 210 (ЮЗ) 20000 м  {ливн. осадки}  9/3 600 м средняя 
[Cu med, cong|Ac trans]
+9.7 -4.7 36 +9  1017.9  744  290           
15 25.04.17 200 (Ю) 20000 м    9/0 средняя 
[Ac trans]
+10.4 -4.4 35 +10  1017.3  -0.5  743  289      0.0     
18 25.04.17 150 (ЮВ) 10 км    ясно 
+7.8 -3.3 45 +9  1017.3  -0.3  743  291    +10.9  0.0     
21 25.04.17 150 (ЮВ) 10 км    ясно 
+5.4 -3.1 54 +5  1016.5  -0.9  743  294           
00 26.04.17 160 (Ю) 10 км    ясно 
+5.9 -2.9 53 +6  1015.4  -1.1  742  293           
03 26.04.17 170 (Ю) 20000 м    3/0 средняя 
[Ac trans]
+7.7 +0.4 60 +8  1013.7  -1.4  741  290  +5.1         
06 26.04.17 190 (Ю) 3{10}  20000 м    6/4 600 м верхняя 
[Sc|Ci fib]
+10.4 +1.9 56 +10  1013.8  0.4  741  287  +5.1        влажная 
09 26.04.17 180 (Ю) 20000 м    6/0 средняя, верхняя 
[Ac trans|Ci fib]
+15.6 +2.1 40 +16  1013.2  -0.2  741  282           
12 26.04.17 190 (Ю) 20000 м    8/4 600 м средняя 
[Sc|Ac trans]
+18.6 +1.5 32 +19  1012.1  -0.8  740  279           
15 26.04.17 200 (Ю) 4{15}  20000 м    10/8 600 м кучево-дожд., средняя 
[Cb cap|Ac As]
+18.4 +1.3 32 +19  1011.6  -0.5  740  279           
18 26.04.17 190 (Ю) 2{11}  10 км    9/4 600 м кучево-дожд., средняя 
[Cb cap|Ac trans]
+16.6 +0.9 35 +17  1012.4  0.6  740  281    +20.2       
21 26.04.17 200 (Ю) 4{12}  10 км    10/0 средняя 
[Ac und]
+15.5 +1.7 39 +15  1013.2  0.7  741  282           
00 27.04.17 210 (ЮЗ) 2{10}  10 км  в посл. час ливневой дождь  10/5 600 м кучево-дожд., средняя 
[Cb cap|Ac und]
+13 +1.3 45 +13  1014.3  0.8  741  285           
03 27.04.17 200 (Ю) 20000 м  {ливн. осадки}  10/4 600 м кучево-дожд., средняя 
[Cb cap|Ac und]
+11.3 +0.6 48 +12  1014.9  0.4  742  287  +11.3    0.0     
06 27.04.17 180 (Ю) 20000 м  {ливн. осадки}  10/6 960 м средняя 
[Sc|Ac und]
+11.8 -1.2 40 +12  1015.2  0.3  742  287  +11    0.0     
09 27.04.17 180 (Ю) 20000 м    8/0 средняя 
[Ac trans]
+17 +1.1 34 +17  1014.1  -0.5  742  281           
12 27.04.17 210 (ЮЗ) 5-13{13}  20000 м    4/0 средняя, верхняя 
[Ac trans|Ci fib]
+21.1 +2.3 29 +21  1012.5  -1.2  741  277           
15 27.04.17 200 (Ю) 3-10{12}  20000 м    6/0 средняя, верхняя 
[Ac lent|Cs]
+21.4 +1.5 27 +21  1012.3  -0.2  740  276           
18 27.04.17 190 (Ю) 1{13}  10 км    6/4 600 м средняя 
[Sc|Ac trans]
+17.5 +1.3 34 +19  1013.6  741  280    +22.1       
21 27.04.17 220 (ЮЗ) 10 км    10/0 средняя 
[Ac As]
+16 -1.4 30 +17  1014.8  742  283           
00 28.04.17 310 (СЗ) 10 км    10/4 600 м средняя 
[Sc|Ac As]
+11 +6.5 74 +11  1015.8  0.5  742  286           
Время (UTC), дата Ветер
(°,м/с) 
Видим.   Явления Облачность Т
(°С)
Тd
(°С)
f(%) Тe
(°С)
Pmin
(гПа)
dP
(гПа)
Po
(мм)
O2
(г/м3)
Тmin Tmax R s Состояние
почвы

Для получения пояснительной информации подведите курсор к названию столбца.

ПОГОДА в Брянске - архив

Всё, что Вы хотите узнать о погоде в Брянске - удобно и подробно!

Выберите нужную дату (начиная с 1 января 2015* года) и нажмите кнопку "Найти".
Будут отображены архивные сводки погоды по пункту Брянск, начиная с указанной даты.


Отображать данные в формате CSV (для использования в таблицах Excel)


Внимание! Наш архив погоды предназначен исключительно для личного некоммерческого использования в познавательных целях. Если Вам необходимы официальные справки о состоянии погоды (для производственных, юридических, коммерческих и т.п. целей), обращайтесь в органы Росгидромета.

*Примечание: данная дата относится к архиву по метеостанциям СССР (Россия, СНГ, Балтия).
Архив по метеостанциям Зарубежной Европы и Азии (кроме Китая) хранится 10 дней, по другим регионам земного шара (Китай, Африка, Америка, Австралия, Океания) - 1 день.

Брянск - район местоположения метеостанции


Название, широта, долгота, высота метеостанции:
Брянск (город) 53.2°ш. 34.3°д. 216 м над ур. моря [Российская Федерация]

Дополнительная информация

В oтличие oт бoльшинства пoгoдных сайтoв мы публикуем пoдрoбную метеoинфoрмацию в детальнoм прoфессиoнальнoм фoрмате.

Характеристики температуры и влажнoсти вoздуха измеряются на высoте 2 м в тени вдали oт зданий и деревьев.
Скoрoсть ветра измеряется на высoте 10 м (на урoвне рoста челoвека скoрoсть ветра ниже в 1.5-2 раза). Если метеoстанция нахoдится в гoрoде или в лесу, тo скoрoсть ветра занижена на 2-4 м/с пo сравнению с oткрытым местoм. Скoрoсть ветра над акватoриями крупных рек и oзёр, а также на вершинах хoлмoв на 2-5 м/с выше, чем в oбычных услoвиях.
Атмoсфернoе давление в разных тoчках местнoсти мoжет значительнo oтличаться oт давления на метеoстанции, в зависимoсти oт услoвий рельефа (при пoдъёме на 10 м давление пoнижается примернo на 1 мм рт.ст.).